Погода Тивяку

Погода Тивяку : погода сейчас, прогноз погоды и архив. Всё, что Вы хотите узнать о погоде Тивяку!

Хотите узнать прогноз погоды Тивяку? Тогда Вам сюда: Погода Тивяку

Поиск расширенной информации на нашем сайте:

Другие новости

Новости СМИ2

Главная страница сайта

Новости сайта

03.07.2017

Напоминаем, что на нашем специализированном сайте Метеоцентр.Азия вы можете получить высокодетализированные автоматические прогнозы погоды по пунктам России, СНГ и мира в авиационном формате (включающие направление и скорость ветра, видимость, явления погоды, количество и форму облачности, нижнюю и верхнюю границу облачности).


Погода Тивяку - сегодня

Время (UTC), дата Ветер
(°,м/с) 
Видим.   Явления Облачность Т
(°С)
Тd
(°С)
f(%) Тe
(°С)
Pmin
(гПа)
dP
(гПа)
Po
(мм)
O2
(г/м3)
Тmin Tmax R s Состояние
почвы
03 21.09.17 280 (З) 20000 м    4/4 600 м 
[Cu med, cong]
+18.3 +7.5 49 +19  1007.6  0.3  721  271           
06 21.09.17 280 (З) 20000 м    4/0 верхняя 
[Ci fib]
+18.8 +4.1 38 +20  1007.7  721  271           
09 21.09.17 тихо ()   20000 м    3/0 верхняя 
[Ci fib]
+12.7 +7.2 69 +13  1010.4  1.7  722  277    +19.3       
12 21.09.17 тихо ()   20000 м    ясно 
+5.6 +5.3 98 +6  1013.4  1.7  724  285           
15 21.09.17 тихо ()   20000 м    ясно 
+3 +2.8 99 +3  1015.1  1.1  724  288           
18 21.09.17 тихо ()   20000 м    ясно 
+1.2 +1.1 99 +1  1016.1  0.5  725  291           
21 21.09.17 тихо ()   20000 м    ясно 
+0.1 +0 99 1017.6  1.2  726  292  -0.1        влажная 
00 22.09.17 100 (В) 20000 м    ясно 
+11.9 +7.3 73 +13  1015.9  0.5  726  279           
03 22.09.17 360 (С) 20000 м    ясно 
+21.1 +6.6 39 +21  1012.8  -1.5  725  270           
06 22.09.17 360 (С) 20000 м    ясно 
+23.9 +5.3 30 +24  1010.7  -1.5  724  267           
09 22.09.17 тихо ()   20000 м    ясно 
+15 +11 77 +18  1012  -0.1  724  274    +24.4       
12 22.09.17 050 (СВ) 20000 м    3/3 600 м 
[Cu med, cong]
+8.1 +7.6 97 +9  1014.5  1.2  725  282           
15 22.09.17 тихо ()   20000 м    ясно 
+4.7 +4.3 97 +5  1015.1  1.2  725  286           
18 22.09.17 тихо ()   20000 м    ясно 
+2.5 +2.3 99 +3  1014.7  -0.7  724  289           
21 22.09.17 тихо ()   н/о    н/о 
+1.7 +1.5 99 +2  1015  0.1  724  290  +1.2    0.3     
00 23.09.17 тихо ()   20000 м    10/0 средняя, верхняя 
[Ac trans|Ci fib]
+11.5 +7.8 78 +12  1012.9  -0.3  724  279           
03 23.09.17 170 (Ю) 20000 м    10/4 600 м средняя, верхняя 
[Sc|Ac trans|Cs]
+19.4 +6.9 44 +20  1010.4  -1.1  723  271           
06 23.09.17 200 (Ю) 20000 м    10/6 600 м кучево-дожд., средняя 
[Cb cap|Ac trans]
+19.9 +4.7 37 +21  1008.5  -1.7  722  270           
09 23.09.17 тихо () {10}  20000 м  слаб. ливневой дождь  10/10 600 м кучево-дожд. 
[Cb cap]
+11.7 +11.1 96 +15  1011.7  1.8  723  277    +20.8  0.8     
12 23.09.17 тихо ()   20000 м  {ливн. осадки}  8/8 600 м кучево-дожд. 
[Cb cap]
+10.1 +9.8 98 +12  1013.1  724  279           
15 23.09.17 260 (З) 20000 м    3/3 600 м кучево-дожд. 
[Cb cap]
+5.8 +5.5 98 +7  1014.1  0.2  724  285           
18 23.09.17 тихо ()   н/о    н/о 
+5.8 +5.6 99 +6  1014.5  0.4  724  285           
21 23.09.17 тихо ()   20000 м    4/4 600 м кучево-дожд. 
[Cb cap]
+5.6 +5.5 99 +6  1014.9  0.3  725  285  +5      влажная 
00 24.09.17 070 (В) 20000 м    3/3 600 м 
[Cu med, cong]
+9.5 +9.3 99 +12  1013.3  -0.8  724  280           
03 24.09.17 180 (Ю) 20000 м    10/3 600 м средняя 
[Cu med, cong|As op]
+17.9 +6.7 48 +18  1009.6  -2.3  722  272           
Время (UTC), дата Ветер
(°,м/с) 
Видим.   Явления Облачность Т
(°С)
Тd
(°С)
f(%) Тe
(°С)
Pmin
(гПа)
dP
(гПа)
Po
(мм)
O2
(г/м3)
Тmin Tmax R s Состояние
почвы

Для получения пояснительной информации подведите курсор к названию столбца.

ПОГОДА Тивяку - архив

Всё, что Вы хотите узнать о погоде Тивяку - удобно и подробно!

Выберите нужную дату (начиная с 1 января 2015* года) и нажмите кнопку "Найти".
Будут отображены архивные сводки погоды по пункту Тивяку, начиная с указанной даты.


Отображать данные в формате CSV (для использования в таблицах Excel)


Внимание! Наш архив погоды предназначен исключительно для личного некоммерческого использования в познавательных целях. Если Вам необходимы официальные справки о состоянии погоды (для производственных, юридических, коммерческих и т.п. целей), обращайтесь в органы Росгидромета.

*Примечание: данная дата относится к архиву по метеостанциям СССР (Россия, СНГ, Балтия).
Архив по метеостанциям Зарубежной Европы и Азии (кроме Китая) хранится 10 дней, по другим регионам земного шара (Китай, Африка, Америка, Австралия, Океания) - 1 день.

Тивяку - район местоположения метеостанции


Название, широта, долгота, высота метеостанции:
Тивяку 48.6°ш. 137.1°д. 403 м над ур. моря [Российская Федерация]

Дополнительная информация

В oтличие oт бoльшинства пoгoдных сайтoв мы публикуем пoдрoбную метеoинфoрмацию в детальнoм прoфессиoнальнoм фoрмате.

Характеристики температуры и влажнoсти вoздуха измеряются на высoте 2 м в тени вдали oт зданий и деревьев.
Скoрoсть ветра измеряется на высoте 10 м (на урoвне рoста челoвека скoрoсть ветра ниже в 1.5-2 раза). Если метеoстанция нахoдится в гoрoде или в лесу, тo скoрoсть ветра занижена на 2-4 м/с пo сравнению с oткрытым местoм. Скoрoсть ветра над акватoриями крупных рек и oзёр, а также на вершинах хoлмoв на 2-5 м/с выше, чем в oбычных услoвиях.
Атмoсфернoе давление в разных тoчках местнoсти мoжет значительнo oтличаться oт давления на метеoстанции, в зависимoсти oт услoвий рельефа (при пoдъёме на 10 м давление пoнижается примернo на 1 мм рт.ст.).